sat.trackr.live / text

‹ back to catalog

STARLINK-31566

NORAD 59475 · 2024-068W

PAYLOAD ACTIVE UNKNOWN

§ Identity

Operator
Country
US
Launch date
2024-04-10
Launch site
AFETR
Launch vehicle
Mass (kg)
RCS (m²)

Purposes: comms

External: N2YO · Heavens-Above · Gunter

§ Orbital elements

Epoch: 2026-09-21T14:00:45.478944Z

Period
94.27 min
Inclination
43.0021°
Eccentricity
0.0001339
Mean motion
15.27579057 rev/d
Perigee alt
482.1 km
Apogee alt
484.0 km
Semi-major
6,861.2 km
B*
1.4578e-5
RAAN
8.0827°
Arg perigee
270.4747°
Mean anomaly
89.5952°
Rev number
13,848

§ Raw data

STARLINK-315661 59475U 24068W   26264.58385971  .00000139  00000+0  14578-4 0  99972 59475  43.0021   8.0827 0001339 270.4747  89.5952 15.27579057138484

JSON: /api/v1/satellites/59475 · /tle

For live sub-satellite position, see the globe view (requires WebGL).

§ Visibility from observer

Set your observer location to see the next 7 days of passes ≥ 10°. The values pass through the URL so the page stays shareable.

No JS? Fill the form by hand. The geolocation button needs JavaScript.